STARLINK-1277, 45369

Orbit data source: Space-Track

STARLINK-1277, 45369 is a payload satellite owned by SpaceX/Seattle (US) in LEO that was launched on Wed, 18 Mar 2020 UTC via an FALCON 9 launch vehicle from the Air Force Eastern Test Range (AFETR). Payload-class satellites include a variety of spacecraft equipped with specific instruments for various scientific and technological missions. These include communications satellites like Starlink; space stations such as the ISS; scientific satellites like the Hubble; Earth observation satellites from companies like Planet Labs, Umbra, and HawkEye 360; GPS; miniature CubeSats for education and research; and military/defense satellites.

Loading next visibility...
Identifier
45369, 2020-019K
Orbit
LEO
Country
Flag of USUS
Related business
Manufacturer
SpaceX/Seattle
Mission
Operational Commercial Communications
Bus & Motor
STARLINK, Unknown motor
Mass
260 kg wet, ~248 kg dry
Launch date (UTC)
2020-03-18 (6 years ago)
Launch vehicle
FALCON 9
Launch site
Air Force Eastern Test Range (AFETR)
Object type
Payload
Rocket body
Debris
Shape & HBR
Box + 1 Pan, 10.1 m
Radar Cross Section
13.562 m², Large (>1 m²)

Expand to show TLE details & history
Last TLE update: 13 hours ago

TLE from 13 hours ago
0 STARLINK-1277
1 45369U 20019K   25288.97477030  .00000335  00000-0  41350-4 0  9999
2 45369  53.0534  96.8962 0001402  87.7182 272.3968 15.06403502307912
Epoch: 2025-10-15T23:23Z
TLE epoch observation values (Epoch: 2025-10-15T23:23:40.153Z)
Latitude
-0°
Longitude
81.23775°
Altitude
548.039 km
Speed
7.589 km/s
True Right ascension
06h 27m 35s
True Declination
0° 00' 00"
Sunlit
Object was in daylight at epoch
Visualization orbit readout
Latitude
Unknown
Longitude
Unknown
Altitude
Unknown
Speed
Unknown
Apparent Right ascension
Unknown
Apparent Declination
Unknown
Sunlit
N/A
Visualization observer readout
Local Sidereal Time
07:33:09
Azimuth
Unknown
Elevation
Unknown
Doppler factor
Unknown
Orbital elements
Apogee altitude
548.443 km
Perigee altitude
546.501 km
Semi-major axis
6,925.609 km
Eccentricity
0.00014
Inclination
53.0534°
RAAN
96.8962°
Arg. of periapsis
87.7182°
True anomaly
272.38075°
Mean anomaly
272.3968°
Eccentric anomaly
272.38877°
Mean motion
3.76579 °/min
Orbital period
95.6 mins
BSTAR
0.00004135
Loading maneuver chart data...
Computing Atmospheric mass density...

Documentation

Showing up to 5 results
|